Flag for U.S.A. Weather past 2 weeks in Norfolk, Virginia, U.S.A.

Now
56 °F

Partly sunny.


Feels Like: 55 °F
Forecast: 43 / 68 °F
Wind: 5 mph from South

Location: Norfolk Naval Air Station

Current Time: Oct 20, 2014 at 9:57:44 AM

Latest Report: Oct 20, 2014 at 8:59 AM


Visibility: 10 mi

Pressure: 30.19 "Hg

Humidity: 58%

Dew point: 41 °F

Location of NorfolkLocation

Historic Weather in Norfolk — Graph

°F

Norfolk temperature yesterday

Maximum temperature yesterday: 64 °F (at 2:59 PM)
Minimum temperature yesterday: 53 °F (at 11:59 PM)
Average temperature yesterday: 59 °F

Past Weeks' High & Low Weather Summary

 TemperatureHumidityPressure
High83 °F (Oct 14, 1:59 PM)90% (Oct 11, 6:59 AM)30.28 "Hg (Oct 11, 6:59 AM)
Low48 °F (Oct 20, 2:59 AM)31% (Oct 6, 2:59 PM)29.70 "Hg (Oct 18, 1:59 PM)
Average68 °F64%30.01 "Hg
* Reported Oct 5 8:59 AM — Oct 20 8:59 AM, Norfolk, Weather by CustomWeather, © 2014

Note: Actual official high and low records may vary slightly from our data, if they occured in-between our weather recording intervals... More about our weather records

Advertising

Norfolk weather history for previous 24 hours

 ConditionsComfort  
Time TempWeatherWind HumidityBarometerVisibility
8:59 AM
Oct 20
56 °FPartly sunny.5 mph58%30.19 "Hg10 mi
7:59 AM52 °FPassing clouds.6 mph66%30.17 "Hg10 mi
6:59 AM49 °FPassing clouds.3 mph77%30.16 "Hg10 mi
5:59 AM49 °FPassing clouds.5 mph84%30.15 "Hg10 mi
4:59 AM50 °FClear.3 mph80%30.14 "Hg10 mi
3:59 AM48 °FPassing clouds.5 mph80%30.14 "Hg10 mi
2:59 AM48 °FClear.3 mph74%30.14 "Hg10 mi
1:59 AM50 °FPassing clouds.No wind68%30.14 "Hg10 mi
12:59 AM53 °FPassing clouds.5 mph59%30.14 "Hg10 mi
11:59 PM
Oct 19
53 °FPassing clouds.No wind61%30.14 "Hg10 mi
10:59 PM59 °FPassing clouds.8 mph48%30.14 "Hg10 mi
9:59 PM57 °FPassing clouds.8 mph46%30.13 "Hg10 mi
8:59 PM58 °FPassing clouds.6 mph41%30.12 "Hg10 mi
7:59 PM58 °FPassing clouds.8 mph41%30.11 "Hg10 mi
6:59 PM58 °FScattered clouds.7 mph39%30.09 "Hg10 mi
5:59 PM61 °FScattered clouds.14 mph34%30.06 "Hg10 mi
4:59 PM63 °FPassing clouds.12 mph33%30.05 "Hg10 mi
3:59 PM63 °FSunny.14 mph33%30.04 "Hg10 mi
2:59 PM64 °FSunny.15 mph33%30.04 "Hg10 mi
1:59 PM63 °FPassing clouds.18 mph37%30.04 "Hg10 mi
12:59 PM63 °FScattered clouds.15 mph38%30.04 "Hg10 mi
11:59 AM61 °FPartly sunny.16 mph44%30.05 "Hg10 mi
10:59 AM61 °FPartly sunny.20 mph48%30.05 "Hg10 mi
9:59 AM59 °FPartly sunny.24 mph48%30.04 "Hg10 mi
Weather by CustomWeather, © 2014

See weather overviewHow to use our weather pages